Volver al catálogo

SL-6 R/B(2)

ActivoHEO
NORAD 13897·ROCKET BODY·🇷🇺 Russia

Lanzado Mar 16, 1983 desde Plesetsk Cosmodrome

Loading…

Próximos Pases (próximas 24 horas)

TLE

ActualizadoSource: Space-Track

Época: Sep 9, 2026, 20:28 UTC

1 13897U 83019D   26252.85331886  .00000596  00000-0  00000-0 0  9998
2 13897  62.6999 192.3936 7025771 277.2296  14.3243  1.97337191312305

Sigue SL-6 R/B(2) en tiempo real con AllMySat

Download on the App Store